FW8037 Weather Reports


time (UTC)temp
F
wind
direction
speed
knots
gust
knots
rain 1hr
in
rain 24hr
in
rain mn
in
humidity
%
barometer
mb
20260906172535 73 173 1.7 1.7 0.00 0.00 0.00 92 1021.2
20260906172030 73 215 0.9 0.9 0.00 0.00 0.00 93 1021.2
20260906171525 73 212 0.9 0.9 0.00 0.00 0.00 92 1021.0
20260906171021 73 215 0.0 0.9 0.00 0.00 0.00 92 1020.9
20260906170516 73 170 0.9 1.7 0.00 0.00 0.00 93 1020.9
20260906170015 73 197 2.6 4.3 0.00 0.00 0.00 92 1020.8
20260906165512 73 168 1.7 2.6 0.00 0.00 0.00 92 1020.7
20260906165007 72 185 2.6 4.3 0.00 0.00 0.00 93 1020.9
20260906164506 72 169 2.6 2.6 0.00 0.00 0.00 93 1020.9
20260906164003 72 156 1.7 2.6 0.00 0.00 0.00 94 1020.8
20260906163458 72 161 2.6 2.6 0.00 0.00 0.00 94 1020.9
20260906162956 72 144 2.6 4.3 0.00 0.00 0.00 94 1020.6
20260906162455 72 114 4.3 5.2 0.00 0.00 0.00 93 1020.9
20260906161949 72 143 1.7 2.6 0.00 0.00 0.00 93 1020.7
20260906161444 72 115 2.6 2.6 0.00 0.00 0.00 94 1020.7
20260906160943 72 114 3.5 5.2 0.00 0.00 0.00 94 1020.7
20260906160437 72 99 3.5 5.2 0.00 0.00 0.00 94 1020.7
20260906155935 72 169 2.6 2.6 0.00 0.00 0.00 94 1020.6
20260906155434 72 97 2.6 2.6 0.00 0.00 0.00 94 1020.7
20260906154930 71 167 0.9 0.9 0.00 0.00 0.00 95 1021.0
20260906154425 71 133 0.9 0.9 0.00 0.00 0.00 95 1021.0
20260906153923 71 173 1.7 1.7 0.00 0.00 0.00 95 1020.9
20260906153422 71 107 3.5 5.2 0.00 0.00 0.00 95 1020.9
20260906152918 71 142 2.6 5.2 0.00 0.00 0.00 95 1021.0
20260906152413 71 144 2.6 2.6 0.00 0.00 0.00 95 1020.8
20260906151912 71 144 3.5 4.3 0.00 0.00 0.00 95 1020.8
20260906151408 71 57 2.6 2.6 0.00 0.00 0.00 94 1020.8
20260906150903 71 219 0.9 0.9 0.00 0.00 0.00 95 1020.8
20260906150358 71 158 1.7 1.7 0.00 0.00 0.00 95 1020.9
20260906145857 71 148 0.9 1.7 0.00 0.00 0.00 95 1020.8
20260906145351 71 160 2.6 2.6 0.00 0.00 0.00 95 1021.2
20260906144845 71 152 1.7 1.7 0.00 0.00 0.00 95 1020.9
20260906144340 71 152 2.6 2.6 0.00 0.00 0.00 95 1020.9
20260906143841 71 126 3.5 4.3 0.00 0.00 0.00 95 1020.9
20260906143337 71 99 3.5 5.2 0.00 0.00 0.00 96 1020.9
20260906142833 70 177 2.6 2.6 0.00 0.00 0.00 96 1021.1
20260906142327 70 102 3.5 6.1 0.00 0.00 0.00 96 1021.2
20260906141827 70 169 0.9 0.9 0.00 0.00 0.00 96 1021.1
20260906141322 70 131 1.7 1.7 0.00 0.00 0.00 96 1021.1
20260906140820 70 99 3.5 5.2 0.00 0.00 0.00 96 1021.0
20260906140315 70 163 1.7 1.7 0.00 0.00 0.00 97 1021.2
20260906135813 70 143 1.7 2.6 0.00 0.00 0.00 98 1021.1
20260906135308 70 159 1.7 2.6 0.00 0.00 0.00 98 1021.0
20260906134803 69 171 1.7 2.6 0.00 0.00 0.00 98 1020.9
20260906134258 69 150 2.6 4.3 0.00 0.00 0.00 99 1020.7
20260906133754 69 188 0.9 1.7 0.00 0.00 0.00 99 1020.9
20260906133249 69 145 0.9 1.7 0.00 0.00 0.00 99 1020.9
20260906132745 69 187 0.9 1.7 0.00 0.00 0.00 99 1020.6
20260906132240 69 180 0.9 0.9 0.00 0.00 0.00 99 1020.5
20260906131736 69 227 0.0 0.0 0.00 0.00 0.00 99 1020.7
20260906131230 69 206 0.9 0.9 0.00 0.00 0.00 99 1020.7
20260906130726 68 184 0.9 1.7 0.00 0.00 0.00 99 1020.3
20260906130221 69 199 0.9 0.9 0.00 0.00 0.00 99 1020.1
20260906125719 69 180 0.0 0.0 0.00 0.00 0.00 99 1020.2
20260906125217 69 178 0.9 0.9 0.00 0.00 0.00 99 1020.3
20260906124713 69 146 0.9 1.7 0.00 0.00 0.00 99 1020.4
20260906124209 68 195 0.9 0.9 0.00 0.00 0.00 99 1020.0
20260906123707 68 194 0.9 1.7 0.00 0.00 0.00 99 1020.1
20260906123203 68 112 4.3 5.2 0.00 0.00 0.00 99 1020.1
20260906122701 68 211 0.9 0.9 0.00 0.00 0.00 99 1020.1
20260906122157 68 199 0.9 0.9 0.00 0.00 0.00 99 1019.9
20260906121654 68 204 0.9 1.7 0.00 0.00 0.00 99 1020.0
20260906121149 68 183 2.6 2.6 0.00 0.00 0.00 99 1019.9
20260906120645 68 166 1.7 1.7 0.00 0.00 0.00 99 1019.9
20260906120137 68 114 1.7 4.3 0.00 0.00 0.00 99 1019.9
20260906115636 68 42 0.0 0.9 0.00 0.00 0.00 99 1019.6
20260906115132 68 155 0.9 0.9 0.00 0.00 0.00 99 1019.6
20260906114631 68 101 3.5 5.2 0.00 0.00 0.00 99 1019.6
20260906114126 68 142 0.9 1.7 0.00 0.00 0.00 99 1019.4
20260906113626 68 180 2.6 5.2 0.00 0.00 0.00 99 1019.6
20260906113121 68 172 0.9 1.7 0.00 0.00 0.00 99 1019.5
20260906112620 68 142 1.7 1.7 0.00 0.00 0.00 99 1019.7
20260906112118 68 220 0.0 0.9 0.00 0.00 0.00 99 1019.5
20260906111616 68 164 1.7 1.7 0.00 0.00 0.00 99 1019.5
20260906111112 67 224 0.0 0.0 0.00 0.00 0.00 99 1019.4
20260906110612 67 213 0.0 0.0 0.00 0.00 0.00 99 1019.6
20260906110106 67 217 0.0 0.0 0.00 0.00 0.00 99 1019.5
20260906105600 67 124 0.9 0.9 0.00 0.00 0.00 99 1019.3
20260906105057 67 127 0.0 0.9 0.00 0.00 0.00 99 1019.4
20260906104555 67 148 0.9 0.9 0.00 0.00 0.00 99 1019.3
20260906104050 66 151 0.0 0.0 0.00 0.00 0.00 99 1019.5
20260906103548 66 212 0.0 0.0 0.00 0.00 0.00 99 1019.8
20260906103044 66 213 0.0 0.0 0.00 0.00 0.00 99 1019.5
20260906102543 66 168 0.0 0.0 0.00 0.00 0.00 99 1019.6
20260906102039 66 265 0.0 0.0 0.00 0.00 0.00 99 1019.6
20260906101533 66 207 0.0 0.0 0.00 0.00 0.00 99 1019.6
20260906101028 66 232 0.0 0.0 0.00 0.00 0.00 99 1019.3
20260906100523 66 231 0.0 0.0 0.00 0.00 0.00 99 1019.5
20260906100018 66 228 0.0 0.0 0.00 0.00 0.00 99 1019.5
20260906095513 66 221 0.0 0.0 0.00 0.00 0.00 99 1019.6
20260906095008 67 242 0.0 0.0 0.00 0.00 0.00 99 1019.2
20260906094507 67 241 0.0 0.0 0.00 0.00 0.00 99 1019.1
20260906094003 67 235 0.0 0.0 0.00 0.00 0.00 99 1019.0
20260906093459 67 238 0.0 0.0 0.00 0.00 0.00 99 1019.0
20260906092954 67 236 0.0 0.0 0.00 0.00 0.00 99 1019.1
20260906092454 67 240 0.0 0.0 0.00 0.00 0.00 99 1019.0
20260906091949 67 240 0.0 0.0 0.00 0.00 0.00 99 1019.2
20260906091445 67 240 0.0 0.0 0.00 0.00 0.00 99 1019.0
20260906090941 67 227 0.0 0.0 0.00 0.00 0.00 99 1019.1
20260906090436 67 237 0.0 0.0 0.00 0.00 0.00 99 1019.1
20260906085930 67 246 0.0 0.0 0.00 0.00 0.00 99 1019.3
20260906085429 67 238 0.0 0.0 0.00 0.00 0.00 99 1018.9
20260906084928 67 238 0.0 0.0 0.00 0.00 0.00 99 1018.9
20260906084424 68 237 0.0 0.0 0.00 0.00 0.00 99 1018.6
20260906083923 68 127 0.0 0.0 0.00 0.00 0.00 99 1018.9
20260906083418 68 258 0.0 0.0 0.00 0.00 0.00 99 1018.9
20260906082917 68 232 0.0 0.0 0.00 0.00 0.00 99 1018.6
20260906082413 68 233 0.0 0.0 0.00 0.00 0.00 99 1018.5
20260906081909 68 237 0.0 0.0 0.00 0.00 0.00 99 1018.5
20260906081404 68 214 0.0 0.9 0.00 0.00 0.00 99 1018.5
20260906080900 69 227 0.0 0.0 0.00 0.00 0.00 99 1018.6
20260906080357 69 193 1.7 1.7 0.00 0.00 0.00 99 1018.6
20260906075855 69 199 0.0 0.0 0.00 0.00 0.00 99 1018.4
20260906075351 69 100 0.9 0.9 0.00 0.00 0.00 99 1018.3
20260906074846 69 87 0.9 1.7 0.00 0.00 0.00 99 1018.4
20260906074346 69 69 0.9 0.9 0.00 0.00 0.00 99 1018.8
20260906073844 69 116 0.9 0.9 0.00 0.00 0.00 99 1018.6
20260906073339 69 195 0.0 0.0 0.00 0.00 0.00 99 1018.5
20260906072836 69 56 2.6 5.2 0.00 0.00 0.00 99 1018.2
20260906072332 69 90 4.3 7.0 0.00 0.00 0.00 99 1018.5
20260906071827 69 82 1.7 4.3 0.00 0.00 0.00 99 1018.5
20260906071322 69 91 1.7 2.6 0.00 0.00 0.00 99 1018.6
20260906070818 70 87 3.5 4.3 0.00 0.00 0.00 99 1018.4
20260906070313 70 77 2.6 4.3 0.00 0.00 0.00 99 1018.5
20260906065808 70 116 2.6 4.3 0.00 0.00 0.00 99 1018.8
20260906065305 70 347 0.0 0.9 0.00 0.00 0.00 99 1019.0
20260906064759 70 65 0.9 1.7 0.00 0.00 0.00 99 1018.8
20260906064255 70 58 0.9 1.7 0.00 0.00 0.00 99 1018.6
20260906063749 70 69 1.7 2.6 0.00 0.00 0.00 99 1018.9
20260906063245 70 58 0.9 1.7 0.00 0.00 0.00 99 1019.0
20260906062740 70 84 0.9 2.6 0.00 0.00 0.00 99 1019.0
20260906062239 70 81 2.6 4.3 0.00 0.00 0.00 99 1019.1
20260906061735 70 29 0.9 0.9 0.00 0.00 0.00 99 1019.3
20260906061231 70 2 0.0 0.0 0.00 0.00 0.00 99 1019.1
20260906060726 70 89 2.6 4.3 0.00 0.00 0.00 99 1018.9
20260906060224 70 39 1.7 1.7 0.00 0.00 0.00 99 1019.1
20260906055719 70 62 0.0 0.9 0.00 0.00 0.00 99 1019.2
20260906055214 70 314 0.0 0.0 0.00 0.00 0.00 99 1019.2
20260906054709 70 50 1.7 1.7 0.00 0.00 0.00 99 1019.0
20260906054204 70 88 0.0 0.9 0.00 0.00 0.00 99 1019.2
20260906053701 70 329 0.0 0.0 0.00 0.00 0.00 99 1019.0
20260906053156 70 249 0.0 0.0 0.00 0.00 0.00 99 1018.8
20260906052651 70 221 0.0 0.0 0.00 0.00 0.00 99 1018.9
20260906052148 71 55 0.9 1.7 0.00 0.00 0.00 99 1019.0
20260906051644 71 93 0.0 0.9 0.00 0.00 0.00 99 1018.8
20260906051143 71 108 0.9 0.9 0.00 0.00 0.00 99 1018.9
20260906050639 71 231 0.0 0.0 0.00 0.00 0.00 99 1018.8
20260906050134 71 71 0.0 0.0 0.00 0.00 0.00 99 1018.6
20260906045632 71 130 0.0 0.9 0.00 0.00 0.00 99 1018.6
20260906045128 71 6 0.0 0.9 0.00 0.00 0.00 99 1018.9
20260906044624 71 140 0.0 0.0 0.00 0.00 0.00 99 1018.8
20260906044119 72 135 0.9 0.9 0.00 0.00 0.00 99 1018.6
20260906043615 72 108 0.9 1.7 0.00 0.00 0.00 99 1018.9
20260906043110 72 184 0.0 0.0 0.00 0.00 0.00 99 1018.9
20260906042609 72 210 0.0 0.0 0.00 0.00 0.00 99 1018.6
20260906042104 72 112 0.9 0.9 0.00 0.00 0.00 99 1018.3
20260906041600 72 138 0.9 1.7 0.00 0.00 0.00 99 1018.6
20260906041055 72 291 0.0 0.0 0.00 0.00 0.00 99 1018.5
20260906040550 72 161 0.0 0.0 0.00 0.00 0.00 99 1018.5
20260906040045 72 35 0.9 1.7 0.00 0.00 0.00 99 1018.6
20260906035541 72 27 0.0 0.0 0.00 0.00 0.00 99 1018.4
20260906035037 72 62 1.7 1.7 0.00 0.00 0.00 99 1018.6
20260906034536 72 148 0.0 0.0 0.00 0.00 0.00 99 1018.4
20260906034031 72 123 0.9 1.7 0.00 0.00 0.00 99 1018.4
20260906033526 73 38 0.0 0.9 0.00 0.00 0.00 99 1018.4
20260906033022 73 33 0.0 0.0 0.00 0.00 0.00 99 1018.4
20260906032519 73 57 0.0 0.0 0.00 0.00 0.00 99 1018.5
20260906032018 73 98 0.9 1.7 0.00 0.00 0.00 99 1018.6
20260906031514 73 40 0.0 0.0 0.00 0.00 0.00 99 1018.6
20260906031003 73 71 0.9 0.9 0.00 0.00 0.00 99 1018.5
20260906030457 73 264 0.0 0.0 0.00 0.00 0.00 98 1018.3
20260906025952 73 213 0.0 0.9 0.00 0.00 0.00 98 1018.4
20260906025451 73 61 0.0 0.0 0.00 0.00 0.00 98 1018.3
20260906024950 73 73 0.9 2.6 0.00 0.00 0.00 98 1018.2
20260906024445 73 354 0.0 0.0 0.00 0.00 0.00 98 1018.0
20260906023945 73 353 0.0 0.0 0.00 0.00 0.00 98 1018.2
20260906023441 73 23 0.0 0.0 0.00 0.00 0.00 97 1018.1
20260906022936 73 139 0.0 0.0 0.00 0.00 0.00 97 1017.9
20260906022431 74 67 1.7 2.6 0.00 0.00 0.00 97 1017.9
20260906021926 74 133 0.0 0.0 0.00 0.00 0.00 97 1017.8
20260906021426 74 124 0.0 0.0 0.00 0.00 0.00 97 1017.9
20260906020920 74 92 0.9 0.9 0.00 0.00 0.00 97 1017.9
20260906020414 74 112 1.7 1.7 0.00 0.00 0.00 96 1017.6
20260906015904 74 319 0.0 0.0 0.00 0.00 0.00 96 1017.6
20260906015403 74 78 0.0 0.9 0.00 0.00 0.00 96 1017.5
20260906014902 74 90 0.0 0.0 0.00 0.00 0.00 96 1017.4
20260906014357 74 276 0.0 0.0 0.00 0.00 0.00 96 1017.5
20260906013853 74 311 0.0 0.0 0.00 0.00 0.00 96 1017.4
20260906013349 74 343 0.0 0.0 0.00 0.00 0.00 96 1017.4
20260906012844 74 300 0.0 0.0 0.00 0.00 0.00 96 1017.4
20260906012339 75 306 0.0 0.9 0.00 0.00 0.00 96 1017.2
20260906011838 75 43 0.0 0.9 0.00 0.00 0.00 96 1017.2
20260906011333 75 308 0.0 0.0 0.00 0.00 0.00 96 1017.2
20260906010829 75 311 0.0 0.0 0.00 0.00 0.00 95 1017.2
20260906010326 75 39 0.9 0.9 0.00 0.00 0.00 95 1017.1
20260906005821 76 24 0.0 0.0 0.00 0.00 0.00 95 1017.0
20260906005320 76 4 0.0 0.0 0.00 0.00 0.00 95 1017.1
20260906004818 76 97 0.9 1.7 0.00 0.00 0.00 94 1017.1
20260906004312 77 37 0.0 0.0 0.00 0.00 0.00 94 1017.1
20260906003807 77 17 0.0 0.0 0.00 0.00 0.00 95 1016.9
20260906003303 77 17 0.9 1.7 0.00 0.00 0.00 94 1017.1
20260906002758 78 81 0.9 0.9 0.00 0.00 0.00 94 1016.8
20260906002257 78 48 1.7 1.7 0.00 0.00 0.00 94 1017.0
20260906001753 78 356 0.0 0.9 0.00 0.00 0.00 94 1017.2
20260906001248 78 49 0.0 0.0 0.00 0.00 0.00 93 1016.8
20260906000743 78 17 0.0 0.0 0.00 0.00 0.00 93 1017.0
20260906000238 79 28 0.0 0.0 0.00 0.00 0.00 93 1016.8
20260905235733 79 37 0.0 0.9 0.00 0.00 0.00 92 1016.9
20260905235232 79 66 0.0 0.9 0.00 0.00 0.00 92 1016.8
20260905234728 79 114 0.9 1.7 0.00 0.00 0.00 91 1017.0
20260905234223 80 116 0.0 0.9 0.00 0.00 0.00 91 1016.7
20260905233719 79 119 1.7 1.7 0.00 0.00 0.00 91 1016.6
20260905233218 79 22 0.9 0.9 0.00 0.00 0.00 91 1016.8
20260905232713 79 37 2.6 4.3 0.00 0.00 0.00 91 1016.8
20260905232209 80 104 1.7 2.6 0.00 0.00 0.00 90 1016.8
20260905231704 80 37 0.0 0.9 0.00 0.00 0.00 90 1016.8
20260905231200 80 120 2.6 4.3 0.00 0.00 0.00 90 1016.8
20260905230655 80 98 4.3 7.0 0.00 0.00 0.00 90 1016.7
20260905230153 81 65 0.9 1.7 0.00 0.00 0.00 89 1016.6
20260905225653 81 43 0.0 0.0 0.00 0.00 0.00 89 1016.6
20260905225148 81 147 0.9 0.9 0.00 0.00 0.00 88 1016.6
20260905224648 81 122 1.7 1.7 0.00 0.00 0.00 88 1016.5
20260905224148 81 53 2.6 2.6 0.00 0.00 0.00 88 1016.2
20260905223644 82 47 3.5 6.1 0.00 0.00 0.00 87 1016.2
20260905223142 82 115 2.6 2.6 0.00 0.00 0.00 86 1016.6
20260905222637 82 55 1.7 2.6 0.00 0.00 0.00 87 1016.6
20260905222131 83 0 0.9 0.9 0.00 0.00 0.00 86 1016.7
20260905221627 83 41 0.9 0.9 0.00 0.00 0.00 85 1016.5
20260905221123 83 82 0.9 2.6 0.00 0.00 0.00 86 1016.4
20260905220619 83 292 0.9 1.7 0.00 0.00 0.00 86 1016.6
20260905220115 83 65 2.6 2.6 0.00 0.00 0.00 86 1016.3
20260905215614 83 314 0.0 0.9 0.00 0.00 0.00 86 1016.6
20260905215110 82 251 0.0 0.0 0.00 0.00 0.00 86 1016.4
20260905214606 82 2 0.0 0.0 0.00 0.00 0.00 86 1016.3
20260905214106 83 87 0.9 1.7 0.00 0.00 0.00 86 1016.1
20260905213601 84 113 2.6 4.3 0.00 0.00 0.00 84 1016.0
20260905213057 84 346 0.9 0.9 0.00 0.00 0.00 83 1016.0
20260905212557 84 305 0.9 1.7 0.00 0.00 0.00 84 1015.9
20260905212056 84 355 2.6 2.6 0.00 0.00 0.00 83 1016.0
20260905211552 84 62 0.9 0.9 0.00 0.00 0.00 83 1016.0
20260905211047 84 29 1.7 2.6 0.00 0.00 0.00 84 1015.9
20260905210543 84 340 3.5 5.2 0.00 0.00 0.00 84 1016.0
20260905210038 84 79 5.2 6.1 0.00 0.00 0.00 84 1016.0
20260905205536 84 45 4.3 6.1 0.00 0.00 0.00 85 1016.1
20260905205031 84 22 4.3 7.0 0.00 0.00 0.00 85 1015.9
20260905204526 84 71 0.9 0.9 0.00 0.00 0.00 86 1016.4
20260905204021 85 269 0.9 0.9 0.00 0.00 0.00 85 1016.3
20260905203521 84 81 3.5 6.1 0.00 0.00 0.00 85 1016.3
20260905203016 83 110 1.7 2.6 0.00 0.00 0.00 87 1016.3
20260905202511 83 71 0.9 0.9 0.00 0.00 0.00 87 1016.3
20260905202007 83 22 0.9 0.9 0.00 0.00 0.00 88 1016.6
20260905201502 83 196 0.9 1.7 0.00 0.00 0.00 87 1016.9
20260905201002 83 39 2.6 7.0 0.00 0.00 0.00 88 1016.7
20260905200457 83 111 3.5 5.2 0.00 0.00 0.00 88 1016.9
20260905195956 82 84 1.7 2.6 0.00 0.00 0.00 88 1017.0
20260905195451 83 113 2.6 4.3 0.00 0.00 0.00 86 1017.1
20260905194947 82 188 0.0 0.9 0.00 0.00 0.00 88 1017.1
20260905194446 82 40 4.3 5.2 0.00 0.00 0.00 88 1017.0
20260905193941 82 18 1.7 1.7 0.00 0.00 0.00 88 1017.1
20260905193441 82 96 1.7 2.6 0.00 0.00 0.00 89 1017.1
20260905192936 83 104 8.7 12.2 0.00 0.00 0.00 88 1017.1
20260905192431 83 332 0.9 2.6 0.00 0.00 0.00 89 1016.8
20260905191926 83 355 6.1 7.8 0.00 0.00 0.00 88 1016.8
20260905191426 83 74 1.7 2.6 0.00 0.00 0.00 88 1016.8
20260905190920 84 22 2.6 4.3 0.00 0.00 0.00 87 1017.0
20260905190418 84 4 2.6 4.3 0.00 0.00 0.00 87 1017.3
20260905185916 83 273 0.9 0.9 0.00 0.00 0.00 88 1017.7
20260905185412 83 338 2.6 4.3 0.00 0.00 0.00 88 1017.7
20260905184911 83 342 1.7 2.6 0.00 0.00 0.00 88 1017.8
20260905184410 83 339 4.3 6.1 0.00 0.00 0.00 89 1017.7
20260905183909 83 11 0.9 0.9 0.00 0.00 0.00 89 1017.9
20260905183359 83 359 4.3 5.2 0.00 0.00 0.00 89 1018.0
20260905182854 84 8 6.1 7.8 0.00 0.00 0.00 88 1017.8
20260905182353 84 343 2.6 2.6 0.00 0.00 0.00 88 1017.9
20260905181849 84 283 1.7 2.6 0.00 0.00 0.00 89 1017.9
20260905181349 83 335 2.6 4.3 0.00 0.00 0.00 89 1018.1
20260905180848 83 290 1.7 2.6 0.00 0.00 0.00 89 1018.1
20260905180343 84 280 1.7 1.7 0.00 0.00 0.00 88 1018.1
20260905175837 84 346 3.5 4.3 0.00 0.00 0.00 88 1018.1
20260905175332 84 343 6.1 7.0 0.00 0.00 0.00 88 1018.1
20260905174827 84 15 2.6 2.6 0.00 0.00 0.00 88 1017.8
20260905174323 84 15 0.9 1.7 0.00 0.00 0.00 89 1018.0
20260905173818 83 323 1.7 1.7 0.00 0.00 0.00 89 1018.4
20260905173315 83 280 0.9 1.7 0.00 0.00 0.00 90 1018.3
20260905172814 83 344 2.6 2.6 0.00 0.00 0.00 89 1018.3